Location: *
(50.8160°S, 176.0219°W)
Time: 23:42:08
(UTC+00:00)

Cosmos 2056 Rocket - Pass Details

Date: 19 May 2026
Orbit: 738 x 795 km, 74.0° (Epoch: 9 June)

Event Time Altitude Azimuth Distance (km) Brightness Sun altitude
Rises 17:24:47 0° 349° (N) 3,177 6.7 -17.7°
Reaches altitude 10° 17:27:08 10° 353° (N) 2,265 6.0 -17.4°
Maximum altitude 17:32:11 60° 71° (ENE) 868 4.1 -16.6°
Drops below altitude 10° 17:37:21 10° 150° (SSE) 2,321 6.2 -15.8°
Sets 17:39:47 0° 153° (SSE) 3,262 6.9 -15.4°
